Change the Weather History Date:

Wednesday, November 23, 2011

  Actual Average Record
Temperature  
Mean Temperature 35 °F -  
Max Temperature 48 °F 41 °F 66 °F (1999)
Min Temperature 22 °F 27 °F 8 °F (1971)
Degree Days  
Heating Degree Days 30    
Moisture  
Dew Point 32 °F    
Average Humidity 86    
Maximum Humidity 100    
Minimum Humidity 54    
Precipitation  
Precipitation 0.00 in - - ()
Sea Level Pressure  
Sea Level Pressure 30.07 in    
Wind  
Wind Speed 4 mph (West)    
Max Wind Speed 9 mph    
Max Gust Speed -    
Visibility 10 miles    
Events      
Averages and records for this station are not official NWS values.
T = Trace of Precipitation, MM = Missing Value Source: NWS Daily Summary

Daily Weather History Graph

Daily Weather History Graph

Search for Another Location

Airport or City:

Trip Planner

Search our weather history database for the weather conditions in past years. The results will help you decide how hot, cold, wet, or windy it might be!

Date:

Astronomy

Nov. 23, 2011 Rise Set
Actual Time 7:46 AM EST 5:10 PM EST
Civil Twilight 7:14 AM EST 5:41 PM EST
Nautical Twilight 6:39 AM EST 6:17 PM EST
Astronomical Twilight 6:04 AM EST 6:51 PM EST
Moon 5:48 AM EST (11/23) 3:52 PM EST (11/23)
Length of Visible Light 10h 27m
Length of Day
9h 24m
Waning Crescent, 4% of the Moon is Illuminated
Nov 23
Waning Crescent
Nov 25
New
Dec 2
First Quarter
Dec 10
Full
Dec 17
Last Quarter

Hourly Weather History & Observations

Time (EST) Temp. Windchill Dew Point Humidity Pressure Visibility Wind Dir Wind Speed Gust Speed Precip Events Conditions
12:15 AM 32.0 °F 27.5 °F 30.0 °F 92% 29.94 in 10.0 mi NNW 4.6 mph - N/A   Clear
12:35 AM 32.0 °F 28.7 °F 30.2 °F 93% 29.94 in 10.0 mi NNW 3.5 mph - N/A   Clear
12:54 AM 32.0 °F 28.7 °F 30.2 °F 93% 29.94 in 10.0 mi NNW 3.5 mph - N/A   Clear
1:15 AM 31.8 °F 28.5 °F 30.9 °F 96% 29.94 in 10.0 mi NNW 3.5 mph - N/A   Clear
1:34 AM 31.6 °F 27.0 °F 31.1 °F 98% 29.95 in 10.0 mi NNW 4.6 mph - N/A   Clear
2:15 AM 30.0 °F 26.5 °F 30.0 °F 100% 29.96 in 10.0 mi NNW 3.5 mph - N/A   Clear
2:35 AM 29.8 °F 26.3 °F 29.8 °F 100% 29.97 in 10.0 mi NW 3.5 mph - N/A   Clear
2:54 AM 30.0 °F 26.5 °F 30.0 °F 100% 29.97 in 10.0 mi NNW 3.5 mph - N/A   Clear
3:34 AM 28.4 °F 24.6 °F 28.4 °F 100% 29.97 in 10.0 mi WNW 3.5 mph - N/A   Clear
3:54 AM 25.9 °F - 25.9 °F 100% 29.98 in 10.0 mi Calm Calm - N/A   Clear
4:15 AM 26.8 °F - 26.8 °F 100% 29.98 in 10.0 mi Calm Calm - N/A   Clear
4:35 AM 27.3 °F - 27.3 °F 100% 29.99 in 7.0 mi Calm Calm - N/A   Clear
4:54 AM 25.2 °F 20.9 °F 25.2 °F 100% 30.00 in 10.0 mi WNW 3.5 mph - N/A   Clear
5:15 AM 25.7 °F 21.5 °F 25.7 °F 100% 30.00 in 10.0 mi WNW 3.5 mph - N/A   Clear
5:34 AM 26.2 °F - 26.2 °F 100% 30.01 in 10.0 mi Calm Calm - N/A   Clear
6:15 AM 24.6 °F 20.3 °F 24.6 °F 100% 30.02 in 10.0 mi WNW 3.5 mph - N/A   Clear
6:34 AM 24.4 °F 18.6 °F 24.4 °F 100% 30.04 in 10.0 mi WNW 4.6 mph - N/A   Clear
7:34 AM 22.3 °F - 22.3 °F 100% 30.07 in 10.0 mi Calm Calm - N/A   Clear
7:55 AM 22.5 °F - 22.5 °F 100% 30.08 in 10.0 mi Calm Calm - N/A   Clear
8:34 AM 23.9 °F - 23.9 °F 100% 30.10 in 10.0 mi Calm Calm - N/A   Clear
8:55 AM 26.2 °F - 26.2 °F 100% 30.10 in 10.0 mi Calm Calm - N/A   Clear
9:15 AM 28.4 °F - 28.4 °F 100% 30.10 in 10.0 mi Calm Calm - N/A   Clear
9:34 AM 31.1 °F - 31.1 °F 100% 30.11 in 10.0 mi Calm Calm - N/A   Clear
9:55 AM 33.8 °F - 32.7 °F 96% 30.10 in 10.0 mi Calm Calm - N/A   Clear
10:15 AM 36.5 °F - 34.5 °F 93% 30.10 in 10.0 mi Calm Calm - N/A   Clear
10:34 AM 38.3 °F 34.8 °F 35.2 °F 89% 30.11 in 10.0 mi NW 4.6 mph - N/A   Clear
10:55 AM 39.6 °F 36.3 °F 35.6 °F 86% 30.11 in 10.0 mi NW 4.6 mph - N/A   Clear
11:14 AM 40.8 °F 37.8 °F 35.6 °F 82% 30.11 in 10.0 mi WNW 4.6 mph - N/A   Clear
11:34 AM 42.3 °F 36.8 °F 35.8 °F 78% 30.11 in 10.0 mi West 9.2 mph - N/A   Clear
11:55 AM 42.8 °F 38.0 °F 35.6 °F 76% 30.12 in 10.0 mi West 8.1 mph - N/A   Clear
12:35 PM 44.6 °F 42.2 °F 35.1 °F 69% 30.11 in 10.0 mi West 4.6 mph - N/A   Clear
12:55 PM 45.7 °F 42.7 °F 35.1 °F 66% 30.11 in 10.0 mi West 5.8 mph - N/A   Clear
1:14 PM 46.2 °F 42.7 °F 34.0 °F 62% 30.10 in 10.0 mi WNW 6.9 mph - N/A   Clear
1:35 PM 47.1 °F - 33.8 °F 60% 30.10 in 10.0 mi West 4.6 mph - N/A   Clear
1:55 PM 48.4 °F - 34.2 °F 58% 30.10 in 10.0 mi SW 5.8 mph - N/A   Clear
2:14 PM 48.2 °F - 33.3 °F 56% 30.10 in 10.0 mi West 6.9 mph - N/A   Clear
2:35 PM 48.6 °F - 33.8 °F 57% 30.09 in 10.0 mi WSW 4.6 mph - N/A   Clear
2:55 PM 48.6 °F - 33.6 °F 56% 30.09 in 10.0 mi WSW 9.2 mph - N/A   Clear
3:35 PM 48.4 °F - 32.9 °F 55% 30.10 in 10.0 mi West 6.9 mph - N/A   Clear
3:55 PM 48.2 °F - 32.2 °F 54% 30.10 in 10.0 mi West 6.9 mph - N/A   Clear
4:14 PM 47.5 °F - 31.5 °F 54% 30.10 in 10.0 mi WSW 8.1 mph - N/A   Clear
4:35 PM 46.0 °F 41.9 °F 32.0 °F 58% 30.11 in 10.0 mi West 8.1 mph - N/A   Clear
4:55 PM 44.1 °F 39.5 °F 32.0 °F 63% 30.10 in 10.0 mi WSW 8.1 mph - N/A   Clear
5:14 PM 42.1 °F 39.2 °F 32.0 °F 67% 30.11 in 10.0 mi West 4.6 mph - N/A   Clear
5:35 PM 40.5 °F 38.4 °F 32.5 °F 73% 30.12 in 10.0 mi West 3.5 mph - N/A   Clear
5:54 PM 38.8 °F 35.4 °F 32.9 °F 79% 30.13 in 10.0 mi West 4.6 mph - N/A   Clear
6:14 PM 38.1 °F 33.7 °F 33.6 °F 84% 30.14 in 10.0 mi West 5.8 mph - N/A   Clear
6:35 PM 36.9 °F 33.1 °F 33.3 °F 87% 30.13 in 10.0 mi WSW 4.6 mph - N/A   Clear
6:54 PM 36.1 °F 31.4 °F 33.3 °F 89% 30.14 in 10.0 mi WSW 5.8 mph - N/A   Clear
7:54 PM 35.1 °F - 34.3 °F 97% 30.14 in 10.0 mi Calm Calm - N/A   Mostly Cloudy
8:15 PM 35.8 °F - 35.1 °F 97% 30.15 in 10.0 mi Calm Calm - N/A   Overcast
8:35 PM 36.5 °F 32.7 °F 35.8 °F 97% 30.14 in 10.0 mi West 4.6 mph - N/A   Overcast
8:54 PM 37.2 °F 34.7 °F 36.1 °F 96% 30.14 in 10.0 mi West 3.5 mph - N/A   Overcast
9:35 PM 38.3 °F - 36.5 °F 93% 30.14 in 10.0 mi Calm Calm - N/A   Overcast
10:15 PM 38.8 °F 35.4 °F 37.4 °F 95% 30.14 in 7.0 mi WSW 4.6 mph - N/A   Overcast
10:35 PM 39.2 °F 34.2 °F 37.6 °F 94% 30.13 in 7.0 mi SW 6.9 mph - N/A   Overcast
10:54 PM 39.4 °F 34.5 °F 37.8 °F 94% 30.13 in 7.0 mi WSW 6.9 mph - N/A   Overcast
11:15 PM 39.7 °F 37.6 °F 38.5 °F 95% 30.12 in 7.0 mi WSW 3.5 mph - N/A   Overcast
11:34 PM 40.1 °F 38.0 °F 39.2 °F 97% 30.13 in 7.0 mi SW 3.5 mph - N/A   Overcast
11:54 PM 41.0 °F 38.0 °F 39.7 °F 95% 30.14 in 7.0 mi West 4.6 mph - N/A   Overcast